Current Weather Conditions: station 44063

sailwx.info

Last reported at 2019-Aug-19 21:44 UTC.
Time now 2019-Dec-06 21:09 UTC

Location: N 39°00' W 076°24'.
View on Google Maps.

See reports from other nearby stations

  
Tides and Currents Weather Stations Pressure Air Temp Water Temp Dewpoint Dewpoint Depression Visibility Wind Speed Wind Dir Waves Ship Positions
date/time (UTC)wind fromknots sea level pressurealtimeterstation pressurevisibilityair tempwater tempwave heightnotes
2019-Dec-06 20:36 230 9 gusting 9 10.8 7.7
2019-Dec-06 20:30 240 9 gusting 9 11.2 7.7
2019-Dec-06 20:24 240 9 gusting 11 11.0 7.7
2019-Dec-06 20:18 250 7 gusting 9 11.1 7.7
2019-Dec-06 20:12 230 9 gusting 9 10.9 7.7
2019-Dec-06 20:06 210 7 gusting 9 11.0 7.7
2019-Dec-06 20:00 240 7 gusting 9 11.2 7.7 0.2
2019-Dec-06 19:54 240 9 gusting 11 11.3 7.7
2019-Dec-06 19:48 230 9 gusting 11 11.0 7.7
2019-Dec-06 19:42 250 9 gusting 11 11.2 7.7
2019-Dec-06 19:36 220 9 gusting 11 11.3 7.7
2019-Dec-06 19:30 240 11 gusting 13 11.1 7.7
2019-Dec-06 19:24 240 9 gusting 11 11.2 7.7
2019-Dec-06 19:18 230 11 gusting 11 11.1 7.7
2019-Dec-06 19:12 250 7 gusting 9 11.3 7.7
2019-Dec-06 19:06 240 9 gusting 11 11.2 7.7
2019-Dec-06 18:54 220 9 gusting 11 10.3 7.7
2019-Dec-06 18:48 220 11 gusting 13 9.8 7.7
2019-Dec-06 18:42 220 7 gusting 9 9.1 7.7
2019-Dec-06 18:36 210 7 gusting 9 9.1 7.7
2019-Dec-06 18:30 210 9 gusting 11 9.0 7.7
2019-Dec-06 18:24 220 9 gusting 11 8.8 7.7
2019-Dec-06 18:18 220 11 gusting 13 8.6 7.6
2019-Dec-06 18:12 220 11 gusting 13 8.2 7.6
2019-Dec-06 18:00 220 11 gusting 11 8.0 7.6 0.3
2019-Dec-06 17:54 210 11 gusting 13 8.0 7.6
2019-Dec-06 17:48 210 11 gusting 13 8.0 7.6
2019-Dec-06 17:42 210 11 gusting 11 7.9 7.6
2019-Dec-06 17:36 200 11 gusting 13 7.9 7.6
2019-Dec-06 17:30 190 11 gusting 11 7.9 7.6
2019-Dec-06 17:24 210 11 gusting 13 7.8 7.6
2019-Dec-06 17:18 200 11 gusting 13 7.8 7.6
2019-Dec-06 17:12 200 11 gusting 13 7.8 7.6
2019-Dec-06 17:06 200 11 gusting 13 7.7 7.6
2019-Dec-06 17:00 200 11 gusting 13 7.7 7.6 0.4
2019-Dec-06 16:54 200 11 gusting 13 7.7 7.6
2019-Dec-06 16:48 210 11 gusting 13 7.6 7.6
2019-Dec-06 16:42 200 13 gusting 15 7.7 7.7
2019-Dec-06 16:36 200 15 gusting 17 7.7 7.7
2019-Dec-06 16:30 200 15 gusting 17 7.6 7.7
2019-Dec-06 16:24 200 13 gusting 15 7.5 7.7
2019-Dec-06 16:18 210 15 gusting 17 7.5 7.7
2019-Dec-06 16:12 190 15 gusting 17 7.4 7.7
2019-Dec-06 16:06 200 15 gusting 17 7.5 7.7
2019-Dec-06 16:00 190 15 gusting 15 7.5 7.6 0.4
2019-Dec-06 15:54 210 13 gusting 15 7.5 7.6
2019-Dec-06 15:48 210 13 gusting 15 7.5 7.6
2019-Dec-06 15:42 220 13 gusting 15 7.5 7.6
2019-Dec-06 15:36 220 15 gusting 17 7.5 7.6
2019-Dec-06 15:30 200 15 gusting 17 7.5 7.6
2019-Dec-06 15:24 210 15 gusting 17 7.5 7.5
2019-Dec-06 15:18 200 15 gusting 17 7.4 7.5
2019-Dec-06 15:12 210 15 gusting 19 7.3 7.5
2019-Dec-06 15:06 210 17 gusting 19 7.1 7.5
2019-Dec-06 15:00 210 15 gusting 19 7.1 7.5 0.4
2019-Dec-06 14:54 230 15 gusting 19 7.1 7.5
2019-Dec-06 14:48 220 15 gusting 17 7.0 7.4
2019-Dec-06 14:42 230 15 gusting 19 6.9 7.4
2019-Dec-06 14:36 220 15 gusting 17 6.9 7.4
2019-Dec-06 14:30 210 15 gusting 17 6.9 7.4
2019-Dec-06 14:24 230 15 gusting 19 6.9 7.3
2019-Dec-06 14:18 220 13 gusting 15 6.8 7.3
2019-Dec-06 14:12 230 15 gusting 17 6.7 7.3
2019-Dec-06 14:06 220 15 gusting 17 6.7 7.3
2019-Dec-06 14:00 200 15 gusting 17 6.8 7.3 0.3
2019-Dec-06 13:54 210 15 gusting 19 7.0 7.3
2019-Dec-06 13:48 200 15 gusting 17 6.9 7.3
2019-Dec-06 13:42 230 13 gusting 17 6.8 7.3
2019-Dec-06 13:36 220 11 gusting 15 6.7 7.3
2019-Dec-06 13:30 210 13 gusting 15 6.6 7.3
2019-Dec-06 13:24 200 13 gusting 15 6.5 7.3
2019-Dec-06 13:18 230 11 gusting 13 6.3 7.2
2019-Dec-06 13:12 210 11 gusting 11 6.2 7.2
2019-Dec-06 13:06 210 11 gusting 13 6.0 7.3
2019-Dec-06 13:00 210 9 gusting 11 5.8 7.3 0.2
2019-Dec-06 12:54 230 11 gusting 11 5.8 7.3
2019-Dec-06 12:48 220 9 gusting 11 5.6 7.3
2019-Dec-06 12:42 230 9 gusting 11 5.5 7.3
2019-Dec-06 12:36 230 9 gusting 11 5.3 7.3
2019-Dec-06 12:30 220 7 gusting 7 5.1 7.3
2019-Dec-06 12:24 240 7 gusting 7 5.0 7.2
2019-Dec-06 12:18 230 5 gusting 7 5.0 7.2
2019-Dec-06 12:12 230 5 gusting 5 4.9 7.2
2019-Dec-06 12:06 240 5 gusting 5 5.1 7.2
2019-Dec-06 12:00 230 5 gusting 7 5.0 7.2 0.1
2019-Dec-06 11:54 230 5 gusting 7 4.9 7.2
2019-Dec-06 11:48 240 7 gusting 7 4.8 7.2
2019-Dec-06 11:42 220 5 gusting 7 4.8 7.2
2019-Dec-06 11:36 220 7 gusting 7 4.8 7.2
2019-Dec-06 11:30 210 7 gusting 7 4.7 7.2
2019-Dec-06 11:24 230 5 gusting 7 4.6 7.1
2019-Dec-06 11:18 210 5 gusting 7 4.4 7.1
2019-Dec-06 11:12 210 5 gusting 5 4.5 7.1
2019-Dec-06 11:06 220 5 gusting 5 4.4 7.1
2019-Dec-06 11:00 210 5 gusting 5 4.3 7.1 0.1
2019-Dec-06 10:54 220 3 gusting 3 4.2 7.0
2019-Dec-06 10:48 230 3 gusting 3 4.2 7.0
2019-Dec-06 10:42 230 3 gusting 3 4.2 7.0
2019-Dec-06 10:36 240 3 gusting 3 4.1 6.9
2019-Dec-06 10:30 240 3 gusting 3 4.1 6.9
2019-Dec-06 10:24 240 5 gusting 5 4.0 6.9
2019-Dec-06 10:18 250 3 gusting 5 4.0 6.9
2019-Dec-06 10:12 250 3 gusting 5 4.1 6.9
2019-Dec-06 10:06 240 3 gusting 5 4.1 7.0
2019-Dec-06 10:00 240 5 gusting 5 4.2 6.9
2019-Dec-06 09:54 250 5 gusting 7 4.1 7.0
2019-Dec-06 09:48 260 5 gusting 7 4.2 7.0
2019-Dec-06 09:42 270 5 gusting 7 4.1 7.0
2019-Dec-06 09:36 260 5 gusting 7 4.0 6.9
2019-Dec-06 09:30 250 7 gusting 7 4.0 6.9
2019-Dec-06 09:24 240 7 gusting 7 4.0 6.9
2019-Dec-06 09:18 240 7 gusting 7 4.0 6.9
2019-Dec-06 09:12 240 7 gusting 7 4.0 6.9
2019-Dec-06 09:06 240 7 gusting 9 4.1 6.9
2019-Dec-06 09:00 240 7 gusting 7 4.0 6.9
2019-Dec-06 08:54 240 7 gusting 7 4.4 6.8
2019-Dec-06 08:48 230 5 gusting 5 4.5 6.8
2019-Dec-06 08:42 210 5 gusting 5 4.4 6.8
2019-Dec-06 08:36 220 5 gusting 5 4.4 6.8
2019-Dec-06 08:30 220 5 gusting 5 4.5 6.8
2019-Dec-06 08:24 220 5 gusting 5 4.5 6.8
2019-Dec-06 08:18 230 5 gusting 5 4.5 6.8
2019-Dec-06 08:12 230 3 gusting 5 4.3 6.8
2019-Dec-06 08:06 250 5 gusting 5 4.4 6.8
2019-Dec-06 08:00 230 3 gusting 5 4.4 6.8
2019-Dec-06 07:54 230 3 gusting 3 4.5 6.8
2019-Dec-06 07:48 280 1 gusting 1 4.5 6.8
2019-Dec-06 07:42 240 3 gusting 3 4.6 6.8
2019-Dec-06 07:36 250 1 gusting 1 4.7 6.8
2019-Dec-06 07:30 4.6 6.8
2019-Dec-06 07:24 4.6 6.8
2019-Dec-06 07:18 4.5 6.8
2019-Dec-06 07:12 4.5 6.8
2019-Dec-06 07:06 4.4 6.8
2019-Dec-06 07:00 4.3 6.8
2019-Dec-06 06:54 4.2 6.8
2019-Dec-06 06:48 060 1 gusting 1 4.3 6.8
2019-Dec-06 06:42 030 1 gusting 1 4.5 6.8
2019-Dec-06 06:36 060 1 gusting 1 4.6 6.8
2019-Dec-06 06:30 060 1 gusting 1 4.5 6.9
2019-Dec-06 06:24 040 1 gusting 1 4.5 6.9
2019-Dec-06 06:18 050 1 gusting 1 4.6 6.8
2019-Dec-06 06:12 030 1 gusting 1 4.6 6.8
2019-Dec-06 06:06 4.6 6.8
2019-Dec-06 06:00 4.6 6.8
2019-Dec-06 05:54 240 1 gusting 1 4.6 6.8
2019-Dec-06 05:48 250 1 gusting 3 4.6 6.8
2019-Dec-06 05:42 270 1 gusting 3 4.6 7.2
2019-Dec-06 05:36 260 3 gusting 3 4.5 7.2
2019-Dec-06 05:30 240 3 gusting 3 4.4 7.2
2019-Dec-06 05:24 240 3 gusting 3 4.6 7.2
2019-Dec-06 05:18 240 1 gusting 3 4.7 7.2
2019-Dec-06 05:12 230 3 gusting 3 4.7 7.1
2019-Dec-06 05:06 230 3 gusting 3 4.7 7.1
2019-Dec-06 05:00 240 3 gusting 3 4.4 7.1
2019-Dec-06 04:54 240 1 gusting 1 4.4 7.0
2019-Dec-06 04:48 240 1 gusting 3 4.5 7.0
2019-Dec-06 04:42 280 1 gusting 1 4.5 7.0
2019-Dec-06 04:36 280 1 gusting 3 4.5 6.9
2019-Dec-06 04:30 300 1 gusting 1 4.5 6.8
2019-Dec-06 04:24 270 1 gusting 1 4.4 6.8
2019-Dec-06 04:18 250 1 gusting 1 4.5 6.9
2019-Dec-06 04:12 250 3 gusting 3 4.5 6.9
2019-Dec-06 04:06 250 3 gusting 3 4.6 7.0
2019-Dec-06 04:00 250 3 gusting 3 4.7 7.0 0.1
2019-Dec-06 03:54 250 3 gusting 3 4.7 7.0
2019-Dec-06 03:48 250 3 gusting 3 4.6 7.0
2019-Dec-06 03:42 230 3 gusting 3 4.4 7.0
2019-Dec-06 03:36 230 3 gusting 3 4.6 7.1
2019-Dec-06 03:30 220 3 gusting 3 4.6 7.1
2019-Dec-06 03:24 220 3 gusting 3 5.0 7.1
2019-Dec-06 03:18 280 3 gusting 3 4.9 7.2
2019-Dec-06 03:12 290 3 gusting 3 4.9 7.2
2019-Dec-06 03:06 270 3 gusting 3 4.9 7.2
2019-Dec-06 03:00 270 3 gusting 3 5.1 7.2 0.1
2019-Dec-06 02:54 280 3 gusting 3 5.1 7.2
2019-Dec-06 02:48 300 3 gusting 3 5.1 7.2
2019-Dec-06 02:42 300 1 gusting 3 5.2 7.2
2019-Dec-06 02:36 010 3 gusting 3 5.3 7.3
2019-Dec-06 02:30 300 3 gusting 3 5.3 7.3
2019-Dec-06 02:24 300 3 gusting 3 5.4 7.3
2019-Dec-06 02:18 330 3 gusting 3 5.4 7.3
2019-Dec-06 02:12 330 3 gusting 3 5.4 7.3
2019-Dec-06 02:06 340 3 gusting 3 5.4 7.3
2019-Dec-06 02:00 010 3 gusting 3 5.4 7.3
2019-Dec-06 01:54 350 3 gusting 3 5.4 7.3
2019-Dec-06 01:48 340 3 gusting 3 5.4 7.4
2019-Dec-06 01:42 350 3 gusting 3 5.5 7.4
2019-Dec-06 01:36 340 3 gusting 3 5.6 7.4
2019-Dec-06 01:30 330 3 gusting 3 5.7 7.4
2019-Dec-06 01:24 340 3 gusting 3 5.8 7.4
2019-Dec-06 01:18 340 5 gusting 5 5.8 7.5
2019-Dec-06 01:12 340 5 gusting 7 5.9 7.4
2019-Dec-06 01:06 330 5 gusting 5 5.9 7.4
2019-Dec-06 01:00 320 5 gusting 7 5.9 7.4 0.1
2019-Dec-06 00:54 300 5 gusting 5 6.0 7.4
2019-Dec-06 00:48 300 5 gusting 5 6.0 7.4
2019-Dec-06 00:42 290 5 gusting 5 6.1 7.4
2019-Dec-06 00:36 310 5 gusting 5 6.1 7.4
2019-Dec-06 00:30 310 5 gusting 5 6.2 7.4
2019-Dec-06 00:24 310 5 gusting 7 6.2 7.4
2019-Dec-06 00:18 310 7 gusting 9 6.2 7.4
2019-Dec-06 00:12 300 7 gusting 9 6.2 7.5
2019-Dec-06 00:06 310 5 gusting 7 6.3 7.5
2019-Dec-06 00:00 290 5 gusting 7 6.4 7.5 0.1
2019-Dec-05 23:54 300 5 gusting 7 6.5 7.5
2019-Dec-05 23:48 300 7 gusting 7 6.5 7.5
2019-Dec-05 23:42 310 7 gusting 7 6.4 7.5
2019-Dec-05 23:36 310 5 gusting 5 6.4 7.5
2019-Dec-05 23:30 310 3 gusting 5 6.4 7.5
2019-Dec-05 23:24 280 3 gusting 5 6.5 7.5
2019-Dec-05 23:18 280 3 gusting 5 6.5 7.5
2019-Dec-05 23:12 280 3 gusting 5 6.6 7.6
2019-Dec-05 23:06 280 3 gusting 5 6.8 7.6
2019-Dec-05 23:00 300 5 gusting 7 6.8 7.6
2019-Dec-05 22:54 290 7 gusting 7 6.9 7.6
2019-Dec-05 22:48 310 7 gusting 11 7.0 7.6
2019-Dec-05 22:42 320 9 gusting 9 7.0 7.6
2019-Dec-05 22:36 320 9 gusting 11 7.1 7.6
2019-Dec-05 22:30 330 9 gusting 11 7.1 7.6
2019-Dec-05 22:24 330 11 gusting 11 7.1 7.6
2019-Dec-05 22:18 320 9 gusting 11 7.2 7.6
2019-Dec-05 22:12 320 9 gusting 11 7.2 7.6
2019-Dec-05 22:06 320 11 gusting 13 7.2 7.6
2019-Dec-05 22:00 300 9 gusting 11 7.2 7.6
2019-Dec-05 21:54 310 9 gusting 9 7.3 7.6
2019-Dec-05 21:48 320 9 gusting 11 7.3 7.6
2019-Dec-05 21:42 320 9 gusting 11 7.4 7.6
2019-Dec-05 21:36 320 11 gusting 13 7.5 7.6
2019-Dec-05 21:30 330 11 gusting 13 7.5 7.6
2019-Dec-05 21:24 340 11 gusting 13 7.6 7.6
2019-Dec-05 21:18 320 13 gusting 17 7.7 7.6
2019-Dec-05 21:12 320 13 gusting 15 7.7 7.6
2019-Dec-05 21:06 320 15 gusting 17 7.7 7.6
2019-Dec-05 21:00 320 15 gusting 21 7.8 7.6
2019-Dec-05 20:54 320 13 gusting 17 7.9 7.6
2019-Dec-05 20:48 310 13 gusting 15 7.9 7.6
2019-Dec-05 20:42 310 15 gusting 17 7.9 7.6
2019-Dec-05 20:36 310 15 gusting 17 7.8 7.6
2019-Dec-05 20:30 320 13 gusting 15 7.8 7.6
2019-Dec-05 20:24 340 13 gusting 15 7.8 7.6
2019-Dec-05 20:18 310 13 gusting 15 7.8 7.6
2019-Dec-05 20:12 310 11 gusting 13 7.7 7.6
2019-Dec-05 20:06 330 15 gusting 17 7.7 7.6
2019-Dec-05 20:00 280 13 gusting 15 7.7 7.6 0.3
2019-Dec-05 19:54 310 17 gusting 19 7.7 7.6
2019-Dec-05 19:48 330 15 gusting 19 7.6 7.6
2019-Dec-05 19:42 320 17 gusting 19 7.6 7.6
2019-Dec-05 19:36 320 19 gusting 25 7.5 7.6
2019-Dec-05 19:30 330 19 gusting 21 7.4 7.6
2019-Dec-05 19:24 310 17 gusting 19 7.3 7.6
2019-Dec-05 19:18 340 15 gusting 17 7.3 7.6
2019-Dec-05 19:12 320 17 gusting 21 7.2 7.6
2019-Dec-05 19:06 300 19 gusting 23 7.3 7.6
2019-Dec-05 19:00 310 19 gusting 25 7.2 7.6 0.3
2019-Dec-05 18:54 310 17 gusting 21 7.1 7.6
2019-Dec-05 18:48 310 15 gusting 21 7.0 7.6
2019-Dec-05 18:42 320 17 gusting 17 6.8 7.6
2019-Dec-05 18:36 310 15 gusting 17 6.8 7.6
2019-Dec-05 18:30 320 17 gusting 21 6.9 7.6
2019-Dec-05 18:24 300 15 gusting 19 7.0 7.6
2019-Dec-05 18:18 310 13 gusting 17 7.0 7.6
2019-Dec-05 18:12 330 11 gusting 15 6.8 7.6
2019-Dec-05 18:06 340 15 gusting 17 6.7 7.6
2019-Dec-05 18:00 340 15 gusting 17 6.6 7.6
2019-Dec-05 17:54 330 17 gusting 19 6.6 7.6
2019-Dec-05 17:48 330 15 gusting 17 6.4 7.6
2019-Dec-05 17:42 320 15 gusting 19 6.4 7.6
2019-Dec-05 17:36 330 15 gusting 19 6.3 7.6
2019-Dec-05 17:30 310 17 gusting 19 6.3 7.7
2019-Dec-05 17:24 310 13 gusting 19 6.5 7.7
2019-Dec-05 17:18 280 13 gusting 19 6.4 7.7
2019-Dec-05 17:12 320 17 gusting 21 6.5 7.7
2019-Dec-05 17:06 320 19 gusting 25 6.5 7.8
2019-Dec-05 17:00 320 17 gusting 23 6.4 7.8 0.3
2019-Dec-05 16:54 300 19 gusting 25 6.4 7.8
2019-Dec-05 16:48 320 19 gusting 23 6.3 7.8
2019-Dec-05 16:42 300 19 gusting 23 6.2 7.7
2019-Dec-05 16:36 310 21 gusting 25 6.2 7.7
2019-Dec-05 16:30 310 15 gusting 19 6.3 7.7
2019-Dec-05 16:24 300 17 gusting 19 6.3 7.7
2019-Dec-05 16:18 320 19 gusting 23 6.4 7.7
2019-Dec-05 16:12 320 17 gusting 23 6.4 7.7
2019-Dec-05 16:06 310 17 gusting 21 6.2 7.7
2019-Dec-05 16:00 320 15 gusting 17 6.2 7.7 0.3
2019-Dec-05 15:54 290 17 gusting 19 6.1 7.7
2019-Dec-05 15:48 290 15 gusting 17 6.0 7.7
2019-Dec-05 15:42 310 13 gusting 15 5.9 7.7
2019-Dec-05 15:36 310 17 gusting 19 5.9 7.7
2019-Dec-05 15:30 320 17 gusting 19 5.9 7.7
2019-Dec-05 15:24 310 17 gusting 19 5.9 7.7
2019-Dec-05 15:18 320 15 gusting 19 5.9 7.7
2019-Dec-05 15:12 310 15 gusting 17 5.9 7.6
2019-Dec-05 15:06 320 19 gusting 25 5.9 7.6
2019-Dec-05 15:00 310 17 gusting 19 5.9 7.7
2019-Dec-05 14:54 340 15 gusting 17 5.9 7.7
2019-Dec-05 14:48 320 17 gusting 19 6.0 7.7
2019-Dec-05 14:42 300 15 gusting 19 5.9 7.7
2019-Dec-05 14:36 290 13 gusting 15 5.8 7.7
2019-Dec-05 14:30 300 11 gusting 15 5.7 7.7
2019-Dec-05 14:24 280 15 gusting 17 5.7 7.7
2019-Dec-05 14:18 310 13 gusting 17 5.6 7.7
2019-Dec-05 14:12 320 15 gusting 17 5.6 7.7
2019-Dec-05 14:06 320 15 gusting 19 5.5 7.7
2019-Dec-05 14:00 320 13 gusting 17 5.5 7.6
2019-Dec-05 13:54 330 13 gusting 15 5.4 7.6
2019-Dec-05 13:48 320 13 gusting 17 5.4 7.7
2019-Dec-05 13:42 320 13 gusting 15 5.3 7.6
2019-Dec-05 13:36 310 15 gusting 19 5.4 7.7
2019-Dec-05 13:30 300 15 gusting 17 5.3 7.7
2019-Dec-05 13:24 330 15 gusting 19 5.2 7.7
2019-Dec-05 13:18 320 13 gusting 17 5.3 7.7
2019-Dec-05 13:12 310 15 gusting 21 5.3 7.7
2019-Dec-05 13:06 330 17 gusting 21 5.3 7.7
2019-Dec-05 13:00 300 15 gusting 17 5.3 7.7
2019-Dec-05 12:54 300 15 gusting 19 5.2 7.7
2019-Dec-05 12:48 310 13 gusting 17 5.2 7.7
2019-Dec-05 12:42 300 15 gusting 17 5.2 7.7
2019-Dec-05 12:36 320 11 gusting 13 5.2 7.7
2019-Dec-05 12:30 310 13 gusting 15 5.1 7.7
2019-Dec-05 12:24 300 11 gusting 13 5.1 7.6
2019-Dec-05 12:18 300 11 gusting 13 5.2 7.7
2019-Dec-05 12:12 290 11 gusting 13 5.2 7.7
2019-Dec-05 12:06 290 13 gusting 15 5.2 7.7
2019-Dec-05 12:00 310 13 gusting 15 5.3 7.7
2019-Dec-05 11:54 310 13 gusting 13 5.2 7.7
2019-Dec-05 11:48 300 13 gusting 17 5.3 7.7
2019-Dec-05 11:42 340 11 gusting 13 5.3 7.7
2019-Dec-05 11:36 320 11 gusting 15 5.4 7.7
2019-Dec-05 11:30 360 13 gusting 15 5.5 7.7
2019-Dec-05 11:24 320 13 gusting 15 5.5 7.7
2019-Dec-05 11:18 320 17 gusting 21 5.6 7.7
2019-Dec-05 11:12 350 17 gusting 21 5.5 7.7
2019-Dec-05 11:06 300 17 gusting 19 5.5 7.7
2019-Dec-05 11:00 290 13 gusting 17 5.6 7.6
2019-Dec-05 10:54 320 15 gusting 17 5.6 7.6
2019-Dec-05 10:48 320 17 gusting 19 5.6 7.6
2019-Dec-05 10:42 310 15 gusting 19 5.6 7.7
2019-Dec-05 10:36 310 11 gusting 15 5.5 7.6
2019-Dec-05 10:30 290 7 gusting 9 5.5 7.6
2019-Dec-05 10:24 290 9 gusting 13 5.6 7.6
2019-Dec-05 10:18 310 11 gusting 13 5.6 7.6
2019-Dec-05 10:12 290 11 gusting 15 5.5 7.6
2019-Dec-05 10:06 310 11 gusting 13 5.5 7.6
2019-Dec-05 10:00 300 13 gusting 13 5.5 7.6
2019-Dec-05 09:54 300 11 gusting 13 5.5 7.6
2019-Dec-05 09:48 280 11 gusting 15 5.5 7.6
2019-Dec-05 09:42 280 13 gusting 15 5.5 7.6
2019-Dec-05 09:36 300 13 gusting 17 5.5 7.7
2019-Dec-05 09:30 280 13 gusting 15 5.5 7.7
2019-Dec-05 09:24 300 15 gusting 17 5.4 7.7
2019-Dec-05 09:18 290 13 gusting 15 5.4 7.7
2019-Dec-05 09:12 290 11 gusting 13 5.5 7.7
2019-Dec-05 09:06 280 13 gusting 15 5.5 7.7
2019-Dec-05 09:00 290 11 gusting 13 5.4 7.7
2019-Dec-05 08:54 290 11 gusting 13 5.4 7.7
2019-Dec-05 08:48 270 9 gusting 11 5.4 7.7
2019-Dec-05 08:42 310 9 gusting 11 5.4 7.7
2019-Dec-05 08:36 290 9 gusting 11 5.4 7.8
2019-Dec-05 08:30 280 9 gusting 11 5.5 7.7
2019-Dec-05 08:24 290 9 gusting 11 5.5 7.7
2019-Dec-05 08:18 300 9 gusting 11 5.6 7.8
2019-Dec-05 08:12 290 9 gusting 11 5.6 7.8
2019-Dec-05 08:06 280 9 gusting 11 5.7 7.8
2019-Dec-05 08:00 290 9 gusting 11 5.7 7.8 0.2
2019-Dec-05 07:54 280 9 gusting 11 5.7 7.8
2019-Dec-05 07:48 300 9 gusting 9 5.8 7.8
2019-Dec-05 07:42 300 7 gusting 9 5.8 7.8
2019-Dec-05 07:36 290 11 gusting 13 5.8 7.8
2019-Dec-05 07:30 290 9 gusting 13 5.9 7.8
2019-Dec-05 07:24 300 11 gusting 11 5.8 7.8
2019-Dec-05 07:18 290 11 gusting 13 5.8 7.8
2019-Dec-05 07:12 300 9 gusting 11 5.8 7.8
2019-Dec-05 07:06 300 7 gusting 9 5.8 7.8
2019-Dec-05 07:00 300 7 gusting 9 5.9 7.8
2019-Dec-05 06:54 290 7 gusting 9 5.9 7.8
2019-Dec-05 06:48 290 7 gusting 7 6.0 7.8
2019-Dec-05 06:42 300 9 gusting 9 6.1 7.8
2019-Dec-05 06:36 280 9 gusting 11 6.2 7.8
2019-Dec-05 06:30 270 9 gusting 11 6.2 7.8
2019-Dec-05 06:24 240 7 gusting 9 6.2 7.7
2019-Dec-05 06:18 270 7 gusting 9 6.1 7.7
2019-Dec-05 06:12 290 9 gusting 9 6.1 7.7
2019-Dec-05 06:06 310 7 gusting 9 6.1 7.7
2019-Dec-05 06:00 310 9 gusting 9 6.2 7.7
2019-Dec-05 05:54 300 9 gusting 9 6.2 7.7
2019-Dec-05 05:48 290 9 gusting 11 6.2 7.7
2019-Dec-05 05:42 300 11 gusting 11 6.3 7.7
2019-Dec-05 05:36 300 11 gusting 11 6.3 7.7
2019-Dec-05 05:30 310 11 gusting 13 6.3 7.7
2019-Dec-05 05:24 300 11 gusting 13 6.4 7.7
2019-Dec-05 05:18 290 11 gusting 11 6.5 7.7
2019-Dec-05 05:12 290 11 gusting 15 6.4 7.7
2019-Dec-05 05:06 300 9 gusting 11 6.4 7.7
2019-Dec-05 05:00 280 9 gusting 11 6.1 7.8 0.1
2019-Dec-05 04:54 280 5 gusting 7 6.0 7.8
2019-Dec-05 04:48 280 7 gusting 9 6.0 7.8
2019-Dec-05 04:42 280 5 gusting 7 5.9 7.8
2019-Dec-05 04:36 270 5 gusting 7 5.8 7.8
2019-Dec-05 04:30 260 5 gusting 5 5.9 7.8
2019-Dec-05 04:24 270 5 gusting 5 5.9 7.8
2019-Dec-05 04:18 270 5 gusting 5 5.9 7.8
2019-Dec-05 04:12 280 5 gusting 5 5.9 7.8
2019-Dec-05 04:06 270 5 gusting 7 6.0 7.8
2019-Dec-05 04:00 280 5 gusting 5 6.0 7.8 0.1
2019-Dec-05 03:54 270 5 gusting 5 6.1 7.8
2019-Dec-05 03:48 290 5 gusting 5 6.1 7.8
2019-Dec-05 03:42 280 5 gusting 5 6.2 7.8
2019-Dec-05 03:36 280 5 gusting 5 6.3 7.8
2019-Dec-05 03:30 270 3 gusting 5 6.4 7.8
2019-Dec-05 03:24 260 5 gusting 5 6.3 7.8
2019-Dec-05 03:18 280 3 gusting 5 6.2 7.8
2019-Dec-05 03:12 270 3 gusting 3 6.3 7.8
2019-Dec-05 03:06 260 3 gusting 3 6.4 7.8
2019-Dec-05 03:00 270 3 gusting 3 6.5 7.8 0.1
2019-Dec-05 02:54 270 3 gusting 3 6.6 7.8
2019-Dec-05 02:48 260 3 gusting 3 6.6 7.8
2019-Dec-05 02:42 280 1 gusting 3 6.7 7.8
2019-Dec-05 02:36 250 3 gusting 3 6.7 7.8
2019-Dec-05 02:30 260 3 gusting 3 6.8 7.8
2019-Dec-05 02:24 260 3 gusting 3 6.9 7.8
2019-Dec-05 02:18 260 3 gusting 3 7.0 7.8
2019-Dec-05 02:12 290 3 gusting 5 7.1 7.8
2019-Dec-05 02:06 280 3 gusting 5 7.1 7.8
2019-Dec-05 02:00 280 3 gusting 5 7.2 7.8 0.1
2019-Dec-05 01:54 300 5 gusting 5 7.3 7.8
2019-Dec-05 01:48 310 5 gusting 5 7.3 7.9
2019-Dec-05 01:42 300 5 gusting 7 7.4 7.8
2019-Dec-05 01:36 300 7 gusting 9 7.5 7.9
2019-Dec-05 01:30 320 9 gusting 9 7.6 7.9
2019-Dec-05 01:24 320 9 gusting 9 7.6 7.9
2019-Dec-05 01:18 300 11 gusting 13 7.7 7.9
2019-Dec-05 01:12 310 13 gusting 15 7.7 7.9
2019-Dec-05 01:06 300 11 gusting 13 7.8 7.9
2019-Dec-05 01:00 330 13 gusting 17 7.8 7.9 0.2
2019-Dec-05 00:54 330 13 gusting 15 7.8 7.9
2019-Dec-05 00:48 300 11 gusting 15 7.9 7.9
2019-Dec-05 00:42 320 15 gusting 17 8.0 7.9
2019-Dec-05 00:36 310 17 gusting 19 8.0 8.0
2019-Dec-05 00:30 320 17 gusting 19 8.0 8.0
2019-Dec-05 00:24 310 17 gusting 21 7.9 8.0
2019-Dec-05 00:18 290 13 gusting 19 7.9 8.0
2019-Dec-05 00:12 290 15 gusting 19 7.9 8.0
2019-Dec-05 00:06 310 13 gusting 15 7.9 8.0
2019-Dec-05 00:00 300 11 gusting 11 7.9 8.0 0.2
2019-Dec-04 23:54 310 9 gusting 11 7.7 8.0
2019-Dec-04 23:48 310 9 gusting 11 7.6 7.9
2019-Dec-04 23:42 290 7 gusting 9 7.6 7.9
2019-Dec-04 23:36 310 9 gusting 11 7.5 7.9
2019-Dec-04 23:30 320 5 gusting 7 7.5 7.9
2019-Dec-04 23:24 350 7 gusting 7 7.7 7.9
2019-Dec-04 23:18 310 7 gusting 9 7.6 7.9
2019-Dec-04 23:12 270 5 gusting 7 7.6 7.9
2019-Dec-04 23:06 340 3 gusting 5 7.6 7.9
2019-Dec-04 23:00 300 3 gusting 5 7.6 7.9 0.2
2019-Dec-04 22:54 290 5 gusting 5 7.6 7.9
2019-Dec-04 22:48 290 5 gusting 7 7.7 7.9
2019-Dec-04 22:42 290 7 gusting 7 7.6 7.9
2019-Dec-04 22:36 270 5 gusting 7 7.6 7.9
2019-Dec-04 22:30 210 7 gusting 7 7.7 7.9
2019-Dec-04 22:24 280 5 gusting 7 7.7 7.9
2019-Dec-04 22:18 270 5 gusting 7 7.8 7.9
2019-Dec-04 22:12 290 7 gusting 7 7.9 7.9
2019-Dec-04 22:06 280 7 gusting 9 7.7 8.0
2019-Dec-04 22:00 200 5 gusting 7 7.9 8.0 0.2
2019-Dec-04 21:54 240 7 gusting 11 8.0 8.0
2019-Dec-04 21:48 270 5 gusting 5 8.1 8.0
2019-Dec-04 21:42 260 3 gusting 3 8.1 8.0
2019-Dec-04 21:36 260 3 gusting 3 8.1 8.0
2019-Dec-04 21:30 260 3 gusting 3 8.1 8.0
2019-Dec-04 21:24 240 1 gusting 3 8.1 8.0
2019-Dec-04 21:18 280 1 gusting 3 8.1 8.0
2019-Dec-04 21:12 270 1 gusting 1 8.1 8.0
2019-Dec-04 21:06 230 1 gusting 1 8.1 8.0
2019-Dec-04 21:00 220 3 gusting 3 8.1 8.0 0.2